Погода в Алексеевке

Россия / Орловская область     52°39′37″N   35°54′05″E
темп.,
°C
ветер,
м/с
пор.,
м/с
влажн.,
%
обл.,
%
осадки,
мм/ч
давл.,
гПа
погр.,
м
28 ноября, вс
вс2800:00+4ю5139788 0.0 1002388
03:00+5ююз51197100 0.1 1003402
06:00+5юз389320 0.0 1004355
09:00+2юз37945 0.0 1006166
12:00+4зюз357549 0.0 1007286
15:00+5юз237557 0.0 1008105
18:00+3ююв348696 0.0 100851
21:00+3юв41096100 0.0 1008222
29 ноября, пн
пн2900:00+3юв41196100 0.0 1007261
03:00+4юв41095100 0.0 1006234
06:00+4вюв41097100 0.0 1002225
09:00+5в41098100 0.9 1000281
12:00+5юв3999100 0.1 997271
15:00+7ю51198100 0.2 995361
18:00+7ююв51295100 0.0 993377
21:00+7вюв51196100 0.1 988336
30 ноября, вт
вт3000:00+7вюв5997100 4.8 981240
03:00+8юз61196100 6.4 975396
06:00+6юз111693100 4.1 9781166
09:00+1зюз132296100 8.8 9841104
12:00+1зюз132085100 1.6 9871111
15:00+1зюз111782100 1.6 9891099
18:00+1юз91585100 0.0 9901331
21:00−1юз8148221 0.1 991840
1 декабря, ср
ср100:00−1зюз8128482 0.0 9901027
03:00−2зюз8128785 0.1 992985
06:00−2з81391100 0.4 9921053
09:00−3з81293100 1.0 9941000
12:00−3з81193100 1.3 996949
15:00−3з81284100 1.7 997885
18:00−4з7128592 0.0 1000735
21:00−5з6118994 0.0 1002622
2 декабря, чт
чт200:00−6з5109187 0.0 1003473
03:00−6зюз4894100 0.0 1004303
06:00−5ююз389398 0.0 1005279
09:00−3ю61388100 0.0 1004499
12:00−1ююз81696100 1.0 1003693
15:000юз71597100 1.7 1002636
18:00+2юз7149089 0.1 1003510
21:00+1юз61590100 0.1 1004430